Sarasota, FL

1:05 AM EST on December 15, 2019 (GMT -0500)
Sarasota-bradenton

Weather History for KSRQ - September, 2019

Change the Weather History Date:

Thursday, September 5, 2019

  Actual Average Record
Temperature  
Mean Temperature 90 °F 82 °F  
Max Temperature 93 °F 89 °F 96 °F (1923)
Min Temperature 86 °F 75 °F 68 °F (1914)
Degree Days  
Heating Degree Days 0 0  
Month to date heating degree days 0 0  
Since 1 July heating degree days 0 0  
Cooling Degree Days 24 17  
Month to date cooling degree days 112 85  
Year to date cooling degree days 2970 2382  
Growing Degree Days 40 (Base 50)    
Moisture  
Dew Point 80 °F    
Average Humidity 75    
Maximum Humidity 82    
Minimum Humidity 70    
Precipitation  
Precipitation 0.00 in 0.33 in 3.39 in (2003)
Month to date precipitation 0.16 1.70  
Year to date precipitation 41.55 40.03  
Sea Level Pressure  
Sea Level Pressure 29.93 in    
Wind  
Wind Speed 12 mph ()    
Max Wind Speed 17 mph    
Max Gust Speed 23 mph    
Visibility 10.0 miles    
Events      
T = Trace of Precipitation, MM = Missing Value Source: Averaged Metar Reports

Daily Weather History Graph

Daily Weather History Graph

Search for Another Location

Airport or City:

Astronomy

Sep. 05, 2019 Rise Set
Actual Time 7:10 AM EDT 7:46 PM EDT
Civil Twilight 6:47 AM EDT 8:10 PM EDT
Nautical Twilight 6:19 AM EDT 8:37 PM EDT
Astronomical Twilight 5:51 AM EDT 9:05 PM EDT
Moon 1:40 PM EDT (9/5) No Moon Set
Length of Visible Light 13h 22m
Length of Day
12h 35m
Waxing Crescent, 45% of the Moon is Illuminated
Sep 5
Waxing Crescent
Sep 5
First Quarter
Sep 14
Full
Sep 21
Last Quarter
Sep 28
New

Hourly Weather History & Observations

Time (EDT) Temp. Heat Index Dew Point Humidity Pressure Visibility Wind Dir Wind Speed Gust Speed Precip Events Conditions
12:53 AM 86.0 °F 96.9 °F 77.0 °F 74% 29.91 in 10.0 mi West 11.5 mph - N/A   Clear
1:53 AM 86.0 °F 98.3 °F 78.1 °F 77% 29.91 in 10.0 mi West 13.8 mph - N/A   Partly Cloudy
2:53 AM 86.0 °F 98.3 °F 78.1 °F 77% 29.90 in 10.0 mi West 11.5 mph - N/A   Clear
3:53 AM 86.0 °F 98.3 °F 78.1 °F 77% 29.89 in 10.0 mi West 12.7 mph - N/A   Clear
4:53 AM 86.0 °F 98.3 °F 78.1 °F 77% 29.89 in 10.0 mi WNW 15.0 mph - N/A   Clear
5:53 AM 86.0 °F 99.3 °F 79.0 °F 79% 29.91 in 10.0 mi West 11.5 mph - N/A   Partly Cloudy
6:53 AM 86.0 °F 98.3 °F 78.1 °F 77% 29.92 in 10.0 mi West 12.7 mph - N/A   Partly Cloudy
7:53 AM 86.0 °F 99.3 °F 79.0 °F 79% 29.93 in 10.0 mi West 15.0 mph - N/A   Partly Cloudy
8:53 AM 88.0 °F 103.1 °F 79.0 °F 75% 29.95 in 10.0 mi West 12.7 mph - N/A   Scattered Clouds
9:37 AM 89.1 °F 106.4 °F 80.1 °F 75% 29.96 in 10.0 mi West 13.8 mph - N/A   Mostly Cloudy
9:53 AM 89.1 °F 106.4 °F 80.1 °F 75% 29.96 in 10.0 mi West 12.7 mph - N/A   Scattered Clouds
10:18 AM 89.1 °F 106.4 °F 80.1 °F 75% 29.96 in 10.0 mi West 12.7 mph - N/A   Mostly Cloudy
10:34 AM 90.0 °F 107.9 °F 80.1 °F 73% 29.96 in 10.0 mi West 11.5 mph - N/A   Scattered Clouds
10:53 AM 90.0 °F 107.9 °F 80.1 °F 73% 29.96 in 10.0 mi West 13.8 mph - N/A   Partly Cloudy
11:53 AM 91.0 °F 109.1 °F 80.1 °F 70% 29.96 in 10.0 mi West 15.0 mph - N/A   Partly Cloudy
12:53 PM 91.0 °F 110.6 °F 81.0 °F 72% 29.96 in 10.0 mi West 13.8 mph - N/A   Scattered Clouds
1:04 PM 91.9 °F 112.0 °F 81.0 °F 70% 29.96 in 10.0 mi West 13.8 mph - N/A   Mostly Cloudy
1:53 PM 91.0 °F 110.6 °F 81.0 °F 72% 29.95 in 10.0 mi West 16.1 mph - N/A   Mostly Cloudy
2:29 PM 91.9 °F 112.0 °F 81.0 °F 70% 29.94 in 10.0 mi West 16.1 mph - N/A   Scattered Clouds
2:53 PM 91.9 °F 112.0 °F 81.0 °F 70% 29.94 in 10.0 mi West 15.0 mph - N/A   Scattered Clouds
3:53 PM 91.9 °F 112.0 °F 81.0 °F 70% 29.92 in 10.0 mi West 16.1 mph - N/A   Scattered Clouds
4:53 PM 91.0 °F 110.6 °F 81.0 °F 72% 29.92 in 10.0 mi West 12.7 mph - N/A   Partly Cloudy
5:53 PM 89.1 °F 107.8 °F 81.0 °F 77% 29.92 in 10.0 mi West 12.7 mph - N/A   Partly Cloudy
6:53 PM 89.1 °F 107.8 °F 81.0 °F 77% 29.91 in 10.0 mi West 10.4 mph - N/A   Partly Cloudy
7:53 PM 87.1 °F 104.4 °F 81.0 °F 82% 29.91 in 10.0 mi West 12.7 mph - N/A   Partly Cloudy
8:53 PM 87.1 °F 103.2 °F 80.1 °F 80% 29.92 in 10.0 mi West 11.5 mph - N/A   Clear
9:53 PM 87.1 °F 103.2 °F 80.1 °F 80% 29.94 in 10.0 mi West 11.5 mph - N/A   Partly Cloudy
10:53 PM 87.1 °F 103.2 °F 80.1 °F 80% 29.94 in 10.0 mi West 12.7 mph - N/A   Partly Cloudy
11:53 PM 87.1 °F 103.2 °F 80.1 °F 80% 29.94 in 10.0 mi West 10.4 mph - N/A   Partly Cloudy